Regional Weather Roundup
Issued by NWS Green Bay, WI

Home | Current Version | Previous Version | Graphics & Text | Print | Product List | Glossary Off
Versions: 1 2 3 4 5 6 7 8 9 10 11 12 13 14 15 16 17 18 19 20 21 22 23 24 25 26 27 28 29 30 31 32 33 34 35 36 37 38 39 40 41 42 43 44 45 46 47 48 49 50

000
ASUS43 KGRB 240011
RWRGRB

NORTH-CENTRAL AND NORTHEAST WISCONSIN REGIONAL WEATHER ROUNDUP
NATIONAL WEATHER SERVICE GREEN BAY WI
700 PM CDT TUE MAY 23 2017

WIZ005-009-010>012-018-019-240100-
NORTH CENTRAL WISCONSIN

CITY           SKY/WX    TMP DP  RH WIND       PRES   REMARKS
IRONWOOD       CLOUDY    50  45  83 NE7       29.86R
MANITOWISH WTR CLOUDY    51  45  78 N14       29.82S
ARBOR VITAE    CLOUDY    53  45  73 N6        29.80S
EAGLE RIVER    CLOUDY    53  42  67 N9        29.81R
LAND O LAKES   CLOUDY    52  44  74 N6        29.83S
RHINELANDER    CLOUDY    57  45  64 NE7       29.79S
PHILLIPS       LGT RAIN  51  46  82 N9        29.80S
ANTIGO         CLOUDY    52  45  76 E7        29.78S
TOMAHAWK       CLOUDY    55  45  69 N5        29.79S
MERRILL        CLOUDY    56  46  67 E5        29.78S
$$

WIZ013-073-240100-
NORTHEAST WISCONSIN

CITY           SKY/WX    TMP DP  RH WIND       PRES   REMARKS
IRON MOUNTAIN  PTSUNNY   58  41  53 NE8       29.78R
MARINETTE      CLOUDY    52  49  89 N5        29.79S
OCONTO         CLOUDY    49  47  93 N3        29.78F
$$

WIZ017-030-035>037-045-240100-
CENTRAL WISCONSIN

CITY           SKY/WX    TMP DP  RH WIND       PRES   REMARKS
MEDFORD        CLOUDY    54  45  71 NE10      29.76S
WAUSAU         PTSUNNY   56  43  61 NE10      29.75S
MOSINEE        PTSUNNY   54  46  76 E8        29.77S
MARSHFIELD     CLOUDY    56  44  64 E9        29.74S
WISC RAPIDS    CLOUDY    54  46  74 E9        29.76R
STEVENS POINT  CLOUDY    52  43  72 NE15      29.76S
WAUPACA        DRIZZLE   53  47  80 NE8       29.78R
SHAWANO        DRIZZLE   54  47  79 NE8       29.78S
CLINTONVILLE   LGT RAIN  50  46  87 NE3       29.78R
WAUTOMA        RAIN      51  49  92 E13       29.75R
$$

WIZ038-039-048-051-240100-
FOX VALLEY

CITY           SKY/WX    TMP DP  RH WIND       PRES   REMARKS
NWS GREEN BAY  LGT RAIN  51  50  96 NE8       29.78R
APPLETON       LGT RAIN  50  48  93 NE12      29.75R
OSHKOSH        RAIN      51  48  89 NE10      29.75R FOG
FOND DU LAC    HVY RAIN  51  48  89 NE8       29.75R FOG
$$

WIZ022-050-052-240100-
EAST CENTRAL WISCONSIN

CITY           SKY/WX    TMP DP  RH WIND       PRES   REMARKS
EPHRAIM        CLOUDY    49  49 100 N5        29.77R
WASHINGTON ISL CLOUDY    51  48  89 CALM      29.77R
STURGEON BAY   CLOUDY    51  47  86 NW7       29.78S
MANITOWOC      LGT RAIN  49  46  90 N6        29.77S
SHEBOYGAN      CLOUDY    47  47 100 NE10      29.75R FOG
$$

LMZ563-521-522-541>543-240100-
LAKESHORE

STATION/POSITION TIME  TEMP    WIND        PRES    VSBY  WAVE
                       AIR SEA DIR/SP/G                  HT/PER
                 (UTC) (F)     (DEG/KT/KT) (MB)    (MI)  (FT/S)
SHEBOYGAN LKSHOR 0000   44      10/ 14/ 15 1007.6S
KEWAUNEE LKSHORE 2342   50      20/  7/ 10 1007.7S
NORTHPORT PIER   2340   51     320/  3/  4 1008.1S
N MID LAKE BUOY  2350   45 39   30/  8/  8 1009.1R         0
CHAMBERS ISLAND  2340   49     350/  2/  2 1008.1S
MENOMINEE LKSHOR 2342          300/  3/  4 1007.7F
$$




USA.gov is the U.S. government's official web portal to all federal, state and local government web resources and services.